TimeCST,TemperatureF,Dew PointF,Humidity,Sea Level PressureIn,VisibilityMPH,Wind Direction,Wind SpeedMPH,Gust SpeedMPH,PrecipitationIn,Events,Conditions,WindDirDegrees,DateUTC
12:54 AM,43.0,37.0,80,30.09,8.0,Calm,Calm,-,N/A,,Overcast,0,2012-11-20 06:54:00
1:30 AM,39.2,35.6,87,30.08,6.0,Calm,Calm,-,N/A,,Mostly Cloudy,0,2012-11-20 07:30:00
1:54 AM,39.0,36.0,89,30.10,6.0,Calm,Calm,-,N/A,,Overcast,0,2012-11-20 07:54:00
2:54 AM,37.9,35.1,89,30.10,5.0,Calm,Calm,-,N/A,,Scattered Clouds,0,2012-11-20 08:54:00
3:18 AM,37.4,35.6,93,30.07,1.8,Calm,Calm,-,N/A,,Clear,0,2012-11-20 09:18:00
3:38 AM,35.6,33.8,93,30.07,0.8,Calm,Calm,-,N/A,,Clear,0,2012-11-20 09:38:00
3:45 AM,35.6,33.8,93,30.08,1.2,Calm,Calm,-,N/A,,Clear,0,2012-11-20 09:45:00
3:54 AM,36.0,35.1,97,30.10,1.0,Calm,Calm,-,N/A,,Clear,0,2012-11-20 09:54:00
4:08 AM,37.4,35.6,93,30.07,0.5,Calm,Calm,-,N/A,Fog,Fog,0,2012-11-20 10:08:00
4:21 AM,33.8,33.8,100,30.07,0.2,Calm,Calm,-,N/A,Fog,Fog,0,2012-11-20 10:21:00
4:36 AM,33.8,33.8,100,30.07,0.8,Calm,Calm,-,N/A,,Scattered Clouds,0,2012-11-20 10:36:00
4:54 AM,33.1,32.0,96,30.11,0.2,Calm,Calm,-,N/A,Fog,Fog,0,2012-11-20 10:54:00
5:04 AM,33.8,32.0,93,30.08,0.2,Calm,Calm,-,N/A,Fog,Fog,0,2012-11-20 11:04:00
5:19 AM,32.0,30.2,93,30.09,0.2,Calm,Calm,-,N/A,Fog,Fog,0,2012-11-20 11:19:00
5:54 AM,32.0,30.9,96,30.13,0.5,Calm,Calm,-,N/A,Fog,Fog,0,2012-11-20 11:54:00
5:57 AM,33.8,30.2,87,30.10,1.5,Calm,Calm,-,N/A,,Mostly Cloudy,0,2012-11-20 11:57:00
6:01 AM,32.0,30.2,93,30.10,0.8,Calm,Calm,-,N/A,,Mist,0,2012-11-20 12:01:00
6:26 AM,33.8,30.2,87,30.11,0.2,Calm,Calm,-,N/A,Fog,Fog,0,2012-11-20 12:26:00
6:34 AM,32.0,30.2,93,30.11,0.2,Calm,Calm,-,N/A,Fog,Fog,0,2012-11-20 12:34:00
6:44 AM,30.2,30.2,100,30.11,0.2,Calm,Calm,-,N/A,Fog,Light Freezing Fog,0,2012-11-20 12:44:00
6:54 AM,30.9,30.0,96,30.15,1.2,Calm,Calm,-,N/A,,Scattered Clouds,0,2012-11-20 12:54:00
6:56 AM,32.0,30.2,93,30.12,2.0,Calm,Calm,-,N/A,,Mostly Cloudy,0,2012-11-20 12:56:00
7:00 AM,32.0,30.2,93,30.12,0.8,Calm,Calm,-,N/A,,Mist,0,2012-11-20 13:00:00
7:39 AM,30.2,30.2,100,30.12,0.2,Calm,Calm,-,N/A,Fog,Light Freezing Fog,0,2012-11-20 13:39:00
7:46 AM,30.2,30.2,100,30.11,1.0,Calm,Calm,-,N/A,,Mist,0,2012-11-20 13:46:00
7:54 AM,32.0,30.9,96,30.15,1.5,Calm,Calm,-,N/A,,Clear,0,2012-11-20 13:54:00
8:52 AM,37.4,37.4,100,30.11,2.0,Calm,Calm,-,N/A,,Clear,0,2012-11-20 14:52:00
8:54 AM,39.0,37.9,96,30.13,2.5,Calm,Calm,-,N/A,,Clear,0,2012-11-20 14:54:00
9:05 AM,41.0,37.4,87,30.11,3.0,Calm,Calm,-,N/A,,Clear,0,2012-11-20 15:05:00
9:54 AM,48.0,39.0,71,30.14,5.0,Calm,Calm,-,N/A,,Haze,0,2012-11-20 15:54:00
10:54 AM,51.1,39.0,63,30.14,5.0,Calm,Calm,-,N/A,,Haze,0,2012-11-20 16:54:00
11:54 AM,54.0,39.0,57,30.12,9.0,Calm,Calm,-,N/A,,Clear,0,2012-11-20 17:54:00
12:54 PM,57.9,39.0,49,30.11,10.0,WNW,9.2,-,N/A,,Clear,300,2012-11-20 18:54:00
1:54 PM,57.9,39.0,49,30.12,10.0,NW,8.1,-,N/A,,Clear,320,2012-11-20 19:54:00
2:54 PM,57.0,39.0,51,30.12,10.0,West,5.8,-,N/A,,Clear,280,2012-11-20 20:54:00
3:54 PM,55.0,39.0,55,30.13,10.0,NNW,4.6,-,N/A,,Clear,340,2012-11-20 21:54:00
4:54 PM,46.0,37.0,71,30.15,10.0,Calm,Calm,-,N/A,,Clear,0,2012-11-20 22:54:00
5:54 PM,42.1,37.0,82,30.17,9.0,Calm,Calm,-,N/A,,Clear,0,2012-11-20 23:54:00
6:54 PM,37.0,35.1,93,30.18,6.0,Calm,Calm,-,N/A,,Clear,0,2012-11-21 00:54:00
7:54 PM,36.0,33.1,89,30.18,4.0,Calm,Calm,-,N/A,,Clear,0,2012-11-21 01:54:00
8:06 PM,35.6,35.6,100,30.14,1.0,Calm,Calm,-,N/A,,Clear,0,2012-11-21 02:06:00
8:13 PM,35.6,33.8,93,30.14,0.2,Calm,Calm,-,N/A,Fog,Fog,0,2012-11-21 02:13:00
8:27 PM,33.8,33.8,100,30.14,2.0,Calm,Calm,-,N/A,,Clear,0,2012-11-21 02:27:00
8:42 PM,33.8,32.0,93,30.13,1.5,Calm,Calm,-,N/A,,Clear,0,2012-11-21 02:42:00
8:49 PM,33.8,32.0,93,30.13,3.0,Calm,Calm,-,N/A,,Clear,0,2012-11-21 02:49:00
8:54 PM,34.0,32.0,92,30.17,3.0,Calm,Calm,-,N/A,,Clear,0,2012-11-21 02:54:00
9:33 PM,33.8,32.0,93,30.14,2.0,Calm,Calm,-,N/A,,Clear,0,2012-11-21 03:33:00
9:37 PM,33.8,32.0,93,30.14,1.0,Calm,Calm,-,N/A,,Clear,0,2012-11-21 03:37:00
9:44 PM,33.8,32.0,93,30.14,0.2,Calm,Calm,-,N/A,Fog,Fog,0,2012-11-21 03:44:00
9:54 PM,32.0,30.0,92,30.17,1.0,Calm,Calm,-,N/A,,Clear,0,2012-11-21 03:54:00
10:01 PM,33.8,30.2,87,30.14,1.5,Calm,Calm,-,N/A,,Clear,0,2012-11-21 04:01:00
10:24 PM,32.0,30.2,93,30.15,0.8,Calm,Calm,-,N/A,,Clear,0,2012-11-21 04:24:00
10:33 PM,30.2,28.4,93,30.15,0.2,Calm,Calm,-,N/A,Fog,Light Freezing Fog,0,2012-11-21 04:33:00
10:50 PM,30.2,30.2,100,30.15,1.2,Calm,Calm,-,N/A,,Partly Cloudy,0,2012-11-21 04:50:00
10:54 PM,30.9,30.0,96,30.17,1.8,Calm,Calm,-,N/A,,Partly Cloudy,0,2012-11-21 04:54:00
11:01 PM,30.2,30.2,100,30.14,2.5,Calm,Calm,-,N/A,,Partly Cloudy,0,2012-11-21 05:01:00
11:18 PM,30.2,30.2,100,30.14,1.8,Calm,Calm,-,N/A,,Mostly Cloudy,0,2012-11-21 05:18:00
11:37 PM,30.2,28.4,93,30.14,0.2,Calm,Calm,-,N/A,Fog,Light Freezing Fog,0,2012-11-21 05:37:00
11:54 PM,30.9,28.9,92,30.17,0.5,Calm,Calm,-,N/A,Fog,Light Freezing Fog,0,2012-11-21 05:54:00